TimeHST,TemperatureF,Dew PointF,Humidity,Sea Level PressureIn,VisibilityMPH,Wind Direction,Wind SpeedMPH,Gust SpeedMPH,PrecipitationIn,Events,Conditions,WindDirDegrees,DateUTC
12:53 AM,73.9,64.9,73,29.99,10.0,East,3.5,-,N/A,,Clear,80,2012-09-22 10:53:00
1:53 AM,73.9,66.0,76,29.98,10.0,SSE,3.5,-,N/A,,Scattered Clouds,160,2012-09-22 11:53:00
2:53 AM,75.9,66.9,74,29.97,10.0,Calm,Calm,-,N/A,,Mostly Cloudy,0,2012-09-22 12:53:00
3:40 AM,75.2,68.0,78,29.97,10.0,Calm,Calm,-,N/A,,Mostly Cloudy,0,2012-09-22 13:40:00
3:53 AM,75.0,68.0,79,29.97,10.0,ENE,4.6,-,N/A,,Mostly Cloudy,60,2012-09-22 13:53:00
4:31 AM,75.2,68.0,78,29.96,10.0,ENE,3.5,-,N/A,,Mostly Cloudy,60,2012-09-22 14:31:00
4:53 AM,73.9,68.0,82,29.97,10.0,ENE,3.5,-,N/A,,Mostly Cloudy,70,2012-09-22 14:53:00
5:53 AM,73.0,66.9,81,29.97,10.0,ENE,5.8,-,N/A,,Clear,60,2012-09-22 15:53:00
6:53 AM,73.0,66.9,81,29.98,10.0,NE,6.9,-,N/A,,Clear,40,2012-09-22 16:53:00
7:53 AM,79.0,66.0,64,29.99,10.0,NNE,4.6,-,N/A,,Clear,30,2012-09-22 17:53:00
8:53 AM,81.0,64.0,56,29.99,10.0,WNW,4.6,-,N/A,,Clear,290,2012-09-22 18:53:00
9:53 AM,82.0,64.9,56,29.98,10.0,SW,9.2,-,N/A,,Clear,230,2012-09-22 19:53:00
10:53 AM,84.0,64.9,53,29.98,10.0,SSW,12.7,-,N/A,,Clear,200,2012-09-22 20:53:00
11:53 AM,84.9,66.9,55,29.96,10.0,SSW,11.5,-,N/A,,Clear,200,2012-09-22 21:53:00
12:53 PM,84.9,66.9,55,29.95,10.0,SW,11.5,-,N/A,,Clear,220,2012-09-22 22:53:00
1:53 PM,84.9,68.0,57,29.92,10.0,SW,11.5,-,N/A,,Clear,220,2012-09-22 23:53:00
2:53 PM,82.9,66.9,58,29.92,10.0,SSW,12.7,-,N/A,,Mostly Cloudy,210,2012-09-23 00:53:00
3:53 PM,82.0,66.9,60,29.93,10.0,SW,11.5,-,N/A,,Overcast,230,2012-09-23 01:53:00
4:53 PM,81.0,66.9,62,29.94,10.0,WSW,8.1,-,N/A,,Mostly Cloudy,240,2012-09-23 02:53:00
5:53 PM,80.1,66.0,62,29.95,10.0,West,6.9,-,N/A,,Overcast,280,2012-09-23 03:53:00
6:53 PM,79.0,66.9,66,29.95,10.0,WNW,6.9,-,N/A,,Scattered Clouds,290,2012-09-23 04:53:00
7:53 PM,79.0,68.0,69,29.97,10.0,NW,8.1,-,N/A,,Overcast,310,2012-09-23 05:53:00
8:53 PM,80.1,66.9,64,29.98,10.0,NNW,8.1,-,N/A,,Overcast,330,2012-09-23 06:53:00
9:53 PM,79.0,64.0,60,29.98,10.0,SSE,9.2,-,N/A,,Clear,150,2012-09-23 07:53:00
10:53 PM,77.0,66.0,69,29.97,10.0,ESE,9.2,-,N/A,,Clear,120,2012-09-23 08:53:00
11:53 PM,77.0,66.0,69,29.96,10.0,SE,8.1,-,N/A,,Clear,140,2012-09-23 09:53:00